Regional Weather Roundup
Issued by NWS

Home | Current Version | Previous Version | Graphics & Text | Print | Product List | Glossary On
Versions: 1 2 3 4 5 6 7 8 9 10 11 12 13 14 15 16 17 18 19 20 21 22 23 24 25 26 27 28 29 30 31 32 33 34 35 36 37 38 39 40 41 42 43 44 45 46 47 48 49 50
353
ASUS43 KOAX 210402
RWRNE

WEATHER ROUNDUP FOR NEBRASKA
NATIONAL WEATHER SERVICE OMAHA NE
1100 PM CDT WED SEP 20 2017

NOTES: SATELLITE DATA IS BEING USED TO AUGMENT CLOUD COVER ABOVE
       12000 FEET.
       "FAIR" INDICATES FEW OR NO CLOUDS BELOW 12,000 FEET WITH NO
       SIGNIFICANT WEATHER AND/OR OBSTRUCTIONS TO VISIBILITY.


NEZ001>004-019>022-054>056-210500-
NEBRASKA PANHANDLE

CITY           SKY/WX    TMP DP  RH WIND       PRES   REMARKS
SCOTTSBLUFF    CLEAR     60  35  39 SE16      29.83S
ALLIANCE       CLEAR     54  35  48 SE10      29.85S
CHADRON        CLEAR     68  30  24 S23G32    29.78F
GORDON         FAIR      51  38  60 CALM      29.85S
SIDNEY         CLEAR     59  32  36 SE13      29.89R
$$

NEZ057>060-069>072-079>082-210500-
SOUTHWEST NEBRASKA

CITY           SKY/WX    TMP DP  RH WIND       PRES   REMARKS
NORTH PLATTE   CLEAR     52  44  74 E8        29.89F
IMPERIAL       CLEAR     53  35  50 SE7       29.89R
LEXINGTON      CLEAR     60  46  61 SE3       29.91S
MCCOOK         CLEAR     60  39  45 E9        29.88F
OGALLALA       CLEAR     62  35  36 SE7       29.89R
$$

NEZ005>010-023>029-035>040-094-210500-
NORTH CENTRAL NEBRASKA

CITY           SKY/WX    TMP DP  RH WIND       PRES   REMARKS
VALENTINE      CLEAR     64  38  38 S16       29.87R
AINSWORTH      CLEAR     57  44  62 S9        29.89S
BROKEN BOW     CLEAR     49  41  74 N3        29.90F
O`NEILL        CLEAR     60  46  61 SE7       29.91R
ORD            CLEAR     52  45  77 CALM      29.90R
$$

NEZ041-046>049-061>064-073>077-083>087-210500-
SOUTH CENTRAL NEBRASKA

CITY           SKY/WX    TMP DP  RH WIND       PRES   REMARKS
GRAND ISLAND   CLEAR     56  50  80 E5        29.91S
AURORA         CLEAR     56  51  81 NE3       29.90S
HASTINGS       CLEAR     59  47  64 NE6       29.91S
HEBRON         CLEAR     64  55  71 E3        29.88F
HOLDREGE       CLEAR     55  42  63 E8        29.90F
KEARNEY        CLEAR     56  46  69 E6        29.91F
YORK           CLEAR     61  50  67 E7        29.90S
$$

NEZ011>018-030>034-042>045-210500-
NORTHEAST NEBRASKA

CITY           SKY/WX    TMP DP  RH WIND       PRES   REMARKS
NORFOLK        CLEAR     55  50  83 CALM      29.91S
ALBION         CLEAR     53  50  90 CALM      29.92S FOG
BLAIR          CLEAR     65  52  63 NE7       29.90S HAZE
COLUMBUS       CLEAR     54  51  90 CALM      29.92R
FREMONT        CLEAR     58  53  81 CALM      29.91R
TEKAMAH        CLEAR     55  51  86 N5        29.90R
WAYNE          CLEAR     52  49  91 CALM      29.92R
$$

NEZ050>053-065>068-078-088>093-210500-
SOUTHEAST NEBRASKA

CITY           SKY/WX    TMP DP  RH WIND       PRES   REMARKS
LINCOLN        CLEAR     63  52  67 NE5       29.89S
OMAHA EPPLEY   CLEAR     63  55  75 NW3       29.89S
BEATRICE       CLEAR     66  56  71 NE8       29.88S
FALLS CITY     PTCLDY    72  63  73 N5        29.85R
PLATTSMOUTH    CLEAR     67  55  67 NE5       29.90R
$$

NEZ044-045-051>053-067-210500-
OMAHA AREA

CITY           SKY/WX    TMP DP  RH WIND       PRES   REMARKS
OMAHA EPPLEY   CLEAR     63  55  75 NW3       29.89S
BLAIR          CLEAR     65  52  63 NE7       29.90S HAZE
FREMONT        CLEAR     58  53  81 CALM      29.91R
MILLARD        CLEAR     65  55  69 CALM      29.90R
OFFUTT AFB     CLEAR     63  55  73 NE3       29.89R
PLATTSMOUTH    CLEAR     67  55  67 NE5       29.90R
WAHOO          FAIR      57  53  86 N5        29.90S
$$




USA.gov is the U.S. government's official web portal to all federal, state and local government web resources and services.